Location: Newark
(51.0500°N, 12.4500°E)
Time: 19:19:47
(UTC+00:00)

SR - Visible Passes

Search period start: 16 February 2020 00:00
Search period end: 26 February 2020 00:00
Orbit: 575 x 881 km, 66.7° (Epoch: 16 February)

Date Brightness Start Highest point End Pass type
(mag) Time Alt. Az. Time Alt. Az. Time Alt. Az.
16 Feb ? 17:46:48 10° WSW 17:52:16 37° NW 17:57:37 10° NNE visible
16 Feb ? 19:32:03 10° NW 19:35:59 18° NNW 19:38:16 15° NNE visible
16 Feb ? 21:16:29 10° NNW 21:17:41 14° NNW 21:17:41 14° NNW visible
17 Feb ? 16:56:28 10° WSW 17:02:17 55° NW 17:07:59 10° NNE visible
17 Feb ? 18:41:10 10° WNW 18:45:38 22° NNW 18:49:58 10° NNE visible
17 Feb ? 20:26:18 10° NW 20:29:25 16° N 20:29:25 16° N visible
18 Feb ? 17:50:21 10° W 17:55:23 28° NNW 18:00:17 10° NNE visible
18 Feb ? 19:35:47 10° NW 19:39:23 16° N 19:41:07 15° NNE visible
18 Feb ? 21:19:26 10° NNW 21:20:32 14° NNW 21:20:32 14° NNW visible
19 Feb ? 16:59:45 10° WSW 17:05:16 38° NW 17:10:38 10° NNE visible
19 Feb ? 18:45:00 10° WNW 18:48:57 18° NNW 18:52:48 10° NNE visible
19 Feb ? 20:29:31 10° NNW 20:32:13 17° N 20:32:13 17° N visible
20 Feb ? 17:54:06 10° WNW 17:58:36 22° NNW 18:02:58 10° NNE visible
20 Feb ? 19:39:18 10° NW 19:42:47 16° N 19:43:54 15° NNE visible
20 Feb ? 21:22:14 10° NNW 21:23:18 14° NNW 21:23:18 14° NNW visible
21 Feb ? 17:03:18 10° W 17:08:22 29° NNW 17:13:17 10° NNE visible
21 Feb ? 18:48:45 10° NW 18:52:20 16° N 18:55:34 11° NNE visible
21 Feb ? 20:32:28 10° NNW 20:34:58 18° N 20:34:58 18° N visible
22 Feb ? 17:57:56 10° WNW 18:01:55 18° NNW 18:05:46 10° NNE visible
22 Feb ? 19:42:32 10° NNW 19:46:10 17° N 19:46:38 17° NNE visible
22 Feb ? 21:24:57 10° NNW 21:26:02 15° NNW 21:26:02 15° NNW visible
23 Feb ? 17:07:02 10° WNW 17:11:35 22° NNW 17:15:58 10° NNE visible
23 Feb ? 18:52:18 10° NW 18:55:44 16° N 18:58:17 12° NNE visible
23 Feb ? 20:35:17 10° NNW 20:37:42 20° N 20:37:42 20° N visible
24 Feb ? 18:01:42 10° NW 18:05:17 16° N 18:08:44 10° NNE visible
24 Feb ? 19:45:31 10° NNW 19:49:21 19° NNE 19:49:21 19° NNE visible
24 Feb ? 21:27:39 10° NNW 21:28:46 16° NNW 21:28:46 16° NNW visible
25 Feb ? 17:10:52 10° WNW 17:14:52 19° NNW 17:18:45 10° NNE visible
25 Feb ? 18:55:33 10° NNW 18:59:08 17° N 19:01:02 14° NNE visible
25 Feb ? 20:38:01 10° NNW 20:40:26 22° N 20:40:26 22° N visible
